Details From TJSJ - San Juan - Luis Munoz Marin Intl
To MDPP - Puerto Plata Gregorio Luperon Intl
Flight Number -
Tags None
Created
Modified
Stats Distance 279 nm / 517 km
Max Altitude 0 ft / 0 m
Waypoints 6
Social Downloads 3
Likes 1
Share VATSIM

Download

Looking for another format? Having issues loading an existing format? Contact us
Advertisement - Login to hide

Notes

None

Route

TJSJ JAAWS IDAHO BETIR KOBET MDPP

ID Type Via Altitude Latitude Longitude Leg Dist Tot Dist Heading (true) Name
O TJSJ APT - 0 ft / 0 m 18.43942˚ -66.00183˚ - 0 nm - San Juan - Luis Munoz Marin Intl
JAAWS FIX - 0 ft / 0 m 18.97834˚ -66.54066˚ 44 nm 44 nm 317° / 316° -
IDAHO FIX - 0 ft / 0 m 19.26052˚ -67.63955˚ 64 nm 109 nm 285° / 285° -
BETIR FIX - 0 ft / 0 m 19.34167˚ -68.60500˚ 54 nm 164 nm 275° / 275° -
KOBET FIX - 0 ft / 0 m 19.45833˚ -69.71778˚ 63 nm 227 nm 277° / 276° -
O MDPP APT - 0 ft / 0 m 19.75744˚ -70.56979˚ 51 nm 278 nm 291° / 290° Puerto Plata Gregorio Luperon Intl

Altitude Profile

Advertisement - Login to hide

Weather


0- 5 10 15 20 25 30 35+ Temperature / ° C

Clouds and Precipitation
Forecast for 2017-12-12 12:00 UTC. Updated an hour ago

Ground ~20,000 ft ~40,000 ft Winds

TJSJ

Details ICAO TJSJ (SJU)
Name San Juan - Luis Munoz Marin Intl
Region USA (Puerto Rico)
Timezone America/Puerto_Rico (UTC-4.0)
Stats Elevation 9 ft / 3 m (AMSL)
Location 18.438777° -66.002018°
Runways 2
Magnetic Variation 13.221° W

METAR

TJSJ 121156Z 00000KT 10SM FEW036 SCT044 SCT075 25/22 A2995

Decode

TAF

TAF TAF TJSJ 121129Z 1212/1312 00000KT P6SM FEW035 FEW045 FEW080 FM121430 10005KT P6SM FEW030 FEW050 FM121530 08011KT P6SM SCT030 SCT050 FM122300 11005KT P6SM FEW060

Decode

Departure Runways

ID Width Length Bearing (true) Bearing (mag) Surface Threshold Offset Overrun Length
08 200 ft / 61 m 9,781 ft / 2,981 m 66.87° 80.09° Asphalt 0 ft / 0 m 200 ft / 61 m
10 151 ft / 46 m 8,007 ft / 2,440 m 90.14° 103.36° Concrete 0 ft / 0 m 200 ft / 61 m
26 200 ft / 61 m 9,781 ft / 2,981 m 246.88° 260.10° Asphalt 0 ft / 0 m 230 ft / 70 m
28 151 ft / 46 m 8,007 ft / 2,440 m 270.15° 283.37° Concrete 0 ft / 0 m 200 ft / 61 m

MDPP

Details ICAO MDPP (POP)
Name Puerto Plata Gregorio Luperon Intl
Region Dominican Republic
Timezone America/Santo_Domingo (UTC-4.0)
Stats Elevation 15 ft / 5 m (AMSL)
Location 19.757900° -70.570035°
Runways 1
Magnetic Variation 11.227° W

METAR

MDPP 121200Z 00000KT 9999 FEW018 21/20 Q1014

Decode

TAF

Not found

Destination Runways

ID Width Length Bearing (true) Bearing (mag) Surface Threshold Offset Overrun Length
08 151 ft / 46 m 10,101 ft / 3,079 m 72.95° 84.18° Asphalt 0 ft / 0 m 0 ft / 0 m
26 151 ft / 46 m 10,101 ft / 3,079 m 252.95° 264.18° Asphalt 0 ft / 0 m 0 ft / 0 m

Popular Alternatives